Time,TemperatureF,DewpointF,PressureIn,WindDirection,WindDirectionDegrees,WindSpeedMPH,WindSpeedGustMPH,Humidity,HourlyPrecipIn,Conditions,Clouds,dailyrainin,SolarRadiationWatts/m^2,SoftwareType,DateUTC
2013-08-30 00:00:00,77.7,73.2,29.93,SW,221,0.0,0.0,86,0.00,CLR,CLR,0.00,0.0,WeatherDisplay:10.37,2013-08-30 05:00:00,
2013-08-30 00:10:00,77.2,73.0,29.93,SW,221,0.0,0.0,87,0.00,CLR,CLR,0.00,0.0,WeatherDisplay:10.37,2013-08-30 05:10:00,
2013-08-30 00:20:00,76.7,72.9,29.92,SW,221,0.0,0.0,88,0.00,CLR,CLR,0.00,0.0,WeatherDisplay:10.37,2013-08-30 05:20:00,
2013-08-30 00:30:00,76.6,72.8,29.92,SW,221,0.0,0.0,88,0.00,CLR,CLR,0.00,0.0,WeatherDisplay:10.37,2013-08-30 05:30:00,
2013-08-30 00:40:00,76.7,72.5,29.92,SW,221,0.0,0.0,87,0.00,CLR,CLR,0.00,0.0,WeatherDisplay:10.37,2013-08-30 05:40:00,
2013-08-30 00:50:00,76.5,72.4,29.92,SW,221,0.0,0.0,87,0.00,CLR,CLR,0.00,0.0,WeatherDisplay:10.37,2013-08-30 05:50:00,
2013-08-30 01:00:00,76.6,72.8,29.92,SW,220,0.0,1.0,88,0.00,CLR,CLR,0.00,0.0,WeatherDisplay:10.37,2013-08-30 06:00:00,
2013-08-30 01:10:00,76.6,72.8,29.92,SW,219,0.0,0.0,88,0.00,CLR,CLR,0.00,0.0,WeatherDisplay:10.37,2013-08-30 06:10:00,
2013-08-30 01:20:00,76.4,72.6,29.92,SW,219,0.0,0.0,88,0.00,CLR,CLR,0.00,0.0,WeatherDisplay:10.37,2013-08-30 06:20:00,
2013-08-30 01:30:00,76.4,72.6,29.92,SW,221,0.0,0.0,88,0.00,CLR,CLR,0.00,0.0,WeatherDisplay:10.37,2013-08-30 06:30:00,
2013-08-30 01:40:00,76.0,72.5,29.92,SW,221,0.0,0.0,89,0.00,CLR,CLR,0.00,0.0,WeatherDisplay:10.37,2013-08-30 06:40:00,
2013-08-30 01:50:00,75.8,72.6,29.92,SW,221,0.0,0.0,90,0.00,CLR,CLR,0.00,0.0,WeatherDisplay:10.37,2013-08-30 06:50:00,
2013-08-30 02:00:00,75.8,72.7,29.92,SW,221,0.0,0.0,90,0.00,CLR,CLR,0.00,0.0,WeatherDisplay:10.37,2013-08-30 07:00:00,
2013-08-30 02:10:00,75.9,72.8,29.92,SW,221,0.0,0.0,90,0.00,CLR,CLR,0.00,0.0,WeatherDisplay:10.37,2013-08-30 07:10:00,
2013-08-30 02:20:00,75.7,72.2,29.92,SW,221,0.0,0.0,89,0.00,CLR,CLR,0.00,0.0,WeatherDisplay:10.37,2013-08-30 07:20:00,
2013-08-30 02:30:00,75.4,72.6,29.92,SW,221,0.0,0.0,91,0.00,CLR,CLR,0.00,0.0,WeatherDisplay:10.37,2013-08-30 07:30:00,
2013-08-30 02:40:00,74.9,72.4,29.92,SW,221,0.0,0.0,92,0.00,CLR,CLR,0.00,0.0,WeatherDisplay:10.37,2013-08-30 07:40:00,
2013-08-30 02:50:00,74.6,72.4,29.92,SW,221,0.0,0.0,93,0.00,CLR,CLR,0.00,0.0,WeatherDisplay:10.37,2013-08-30 07:50:00,
2013-08-30 03:00:00,74.4,72.6,29.92,SW,221,0.0,0.0,94,0.00,CLR,CLR,0.00,0.0,WeatherDisplay:10.37,2013-08-30 08:00:00,
2013-08-30 03:10:00,74.4,72.6,29.92,SW,221,0.0,0.0,94,0.00,CLR,CLR,0.00,0.0,WeatherDisplay:10.37,2013-08-30 08:10:00,
2013-08-30 03:20:00,74.3,72.1,29.92,SW,221,0.0,0.0,93,0.00,CLR,CLR,0.00,0.0,WeatherDisplay:10.37,2013-08-30 08:20:00,
2013-08-30 03:30:00,74.5,72.3,29.92,SW,220,0.0,1.0,93,0.00,CLR,CLR,0.00,0.0,WeatherDisplay:10.37,2013-08-30 08:30:00,
2013-08-30 03:40:00,74.4,71.9,29.91,SSW,207,0.0,0.0,92,0.00,CLR,CLR,0.00,0.0,WeatherDisplay:10.37,2013-08-30 08:40:00,
2013-08-30 03:50:00,74.2,71.7,29.92,SSW,207,0.0,0.0,92,0.00,CLR,CLR,0.00,0.0,WeatherDisplay:10.37,2013-08-30 08:50:00,
2013-08-30 04:00:00,74.3,72.1,29.92,SSW,207,0.0,0.0,93,0.00,CLR,CLR,0.00,0.0,WeatherDisplay:10.37,2013-08-30 09:00:00,
2013-08-30 04:10:00,74.2,71.7,29.92,SSW,207,0.0,0.0,92,0.00,CLR,CLR,0.00,0.0,WeatherDisplay:10.37,2013-08-30 09:10:00,
2013-08-30 04:20:00,73.9,71.4,29.92,SSW,207,0.0,0.0,92,0.00,CLR,CLR,0.00,0.0,WeatherDisplay:10.37,2013-08-30 09:20:00,
2013-08-30 04:30:00,74.0,71.5,29.92,SSW,207,0.0,0.0,92,0.00,CLR,CLR,0.00,0.0,WeatherDisplay:10.37,2013-08-30 09:30:00,
2013-08-30 04:40:00,73.9,71.4,29.92,SSW,207,0.0,0.0,92,0.00,CLR,CLR,0.00,0.0,WeatherDisplay:10.37,2013-08-30 09:40:00,
2013-08-30 04:50:00,73.9,71.4,29.92,SSW,207,0.0,0.0,92,0.00,CLR,CLR,0.00,0.0,WeatherDisplay:10.37,2013-08-30 09:50:00,
2013-08-30 05:00:00,73.6,71.1,29.92,SSW,207,0.0,0.0,92,0.00,CLR,CLR,0.00,0.0,WeatherDisplay:10.37,2013-08-30 10:00:00,
2013-08-30 05:10:00,73.4,71.3,29.92,SSW,207,0.0,0.0,93,0.00,CLR,CLR,0.00,0.0,WeatherDisplay:10.37,2013-08-30 10:10:00,
2013-08-30 05:20:00,73.1,70.9,29.92,SSW,207,0.0,0.0,93,0.00,CLR,CLR,0.00,0.0,WeatherDisplay:10.37,2013-08-30 10:20:00,
2013-08-30 05:30:00,72.6,70.8,29.92,SSW,207,0.0,0.0,94,0.00,CLR,CLR,0.00,0.0,WeatherDisplay:10.37,2013-08-30 10:30:00,
2013-08-30 05:40:00,72.6,71.1,29.93,SSW,207,0.0,0.0,95,0.00,CLR,CLR,0.00,0.0,WeatherDisplay:10.37,2013-08-30 10:40:00,
2013-08-30 05:50:00,72.6,71.1,29.93,SSW,207,0.0,0.0,95,0.00,CLR,CLR,0.00,0.0,WeatherDisplay:10.37,2013-08-30 10:50:00,
2013-08-30 06:00:00,72.8,71.0,29.93,SSW,206,0.0,1.0,94,0.00,CLR,CLR,0.00,0.0,WeatherDisplay:10.37,2013-08-30 11:00:00,
2013-08-30 06:10:00,72.7,71.2,29.94,SE,143,0.0,1.0,95,0.00,CLR,CLR,0.00,0.0,WeatherDisplay:10.37,2013-08-30 11:10:00,
2013-08-30 06:20:00,72.7,71.2,29.94,SE,140,0.0,1.0,95,0.00,CLR,CLR,0.00,0.0,WeatherDisplay:10.37,2013-08-30 11:20:00,
2013-08-30 06:30:00,72.7,71.2,29.94,SE,140,0.0,1.0,95,0.00,CLR,CLR,0.00,0.0,WeatherDisplay:10.37,2013-08-30 11:30:00,
2013-08-30 06:40:00,72.6,71.1,29.94,SE,140,0.0,1.0,95,0.00,CLR,CLR,0.00,0.0,WeatherDisplay:10.37,2013-08-30 11:40:00,
2013-08-30 06:50:00,72.6,71.4,29.94,SE,140,0.0,1.0,96,0.00,CLR,CLR,0.00,0.0,WeatherDisplay:10.37,2013-08-30 11:50:00,
2013-08-30 07:00:00,72.6,71.1,29.94,SE,141,0.0,1.0,95,0.00,CLR,CLR,0.00,0.0,WeatherDisplay:10.37,2013-08-30 12:00:00,
2013-08-30 07:10:00,72.7,71.5,29.95,SE,141,0.0,0.0,96,0.00,CLR,CLR,0.00,0.0,WeatherDisplay:10.37,2013-08-30 12:10:00,
2013-08-30 07:20:00,73.0,71.4,29.95,SE,141,0.0,0.0,95,0.00,CLR,CLR,0.00,0.0,WeatherDisplay:10.37,2013-08-30 12:20:00,
2013-08-30 07:30:00,73.8,72.3,29.95,SE,141,0.0,0.0,95,0.00,CLR,CLR,0.00,0.0,WeatherDisplay:10.37,2013-08-30 12:30:00,
2013-08-30 07:40:00,75.5,73.3,29.95,SE,141,0.0,1.0,93,0.00,CLR,CLR,0.00,0.0,WeatherDisplay:10.37,2013-08-30 12:40:00,
2013-08-30 07:50:00,76.6,73.5,29.95,SE,145,0.0,1.0,90,0.00,CLR,CLR,0.00,0.0,WeatherDisplay:10.37,2013-08-30 12:50:00,
2013-08-30 08:00:00,77.2,73.4,29.95,SSW,206,1.0,2.0,88,0.00,CLR,CLR,0.00,0.0,WeatherDisplay:10.37,2013-08-30 13:00:00,
2013-08-30 08:10:00,77.8,73.9,29.95,SSW,201,1.0,2.0,88,0.00,CLR,CLR,0.00,0.0,WeatherDisplay:10.37,2013-08-30 13:10:00,
2013-08-30 08:20:00,78.7,74.2,29.95,SW,215,1.0,2.0,86,0.00,CLR,CLR,0.00,0.0,WeatherDisplay:10.37,2013-08-30 13:20:00,
2013-08-30 08:30:00,79.9,74.7,29.95,SW,219,0.0,2.0,84,0.00,CLR,CLR,0.00,0.0,WeatherDisplay:10.37,2013-08-30 13:30:00,
2013-08-30 08:40:00,81.1,75.1,29.95,SW,215,1.0,2.0,82,0.00,CLR,CLR,0.00,0.0,WeatherDisplay:10.37,2013-08-30 13:40:00,
2013-08-30 08:50:00,81.8,75.7,29.95,SW,222,1.0,2.0,82,0.00,CLR,CLR,0.00,0.0,WeatherDisplay:10.37,2013-08-30 13:50:00,
2013-08-30 09:00:00,83.5,76.7,29.95,SSW,210,0.0,2.0,80,0.00,CLR,CLR,0.00,0.0,WeatherDisplay:10.37,2013-08-30 14:00:00,
2013-08-30 09:10:00,85.1,77.0,29.95,SW,215,1.0,2.0,77,0.00,CLR,CLR,0.00,0.0,WeatherDisplay:10.37,2013-08-30 14:10:00,
2013-08-30 09:20:00,85.5,76.3,29.95,SW,233,1.0,3.0,74,0.00,CLR,CLR,0.00,0.0,WeatherDisplay:10.37,2013-08-30 14:20:00,
2013-08-30 09:30:00,86.6,77.3,29.95,SW,218,1.0,4.0,74,0.00,CLR,CLR,0.00,0.0,WeatherDisplay:10.37,2013-08-30 14:30:00,
2013-08-30 09:40:00,87.9,76.9,29.95,WSW,239,1.0,2.0,70,0.00,CLR,CLR,0.00,0.0,WeatherDisplay:10.37,2013-08-30 14:40:00,
2013-08-30 09:50:00,89.1,75.8,29.95,SW,225,2.0,4.0,65,0.00,CLR,CLR,0.00,0.0,WeatherDisplay:10.37,2013-08-30 14:50:00,
2013-08-30 10:00:00,89.6,75.8,29.95,SW,228,2.0,4.0,64,0.00,CLR,CLR,0.00,0.0,WeatherDisplay:10.37,2013-08-30 15:00:00,
2013-08-30 10:10:00,90.3,75.5,29.95,SW,227,2.0,5.0,62,0.00,CLR,CLR,0.00,0.0,WeatherDisplay:10.37,2013-08-30 15:10:00,
2013-08-30 10:20:00,90.6,75.3,29.95,SW,231,1.0,5.0,61,0.00,CLR,CLR,0.00,0.0,WeatherDisplay:10.37,2013-08-30 15:20:00,
2013-08-30 10:30:00,91.0,75.6,29.94,SW,233,1.0,5.0,61,0.00,CLR,CLR,0.00,0.0,WeatherDisplay:10.37,2013-08-30 15:30:00,
2013-08-30 10:40:00,91.6,75.8,29.94,SW,232,1.0,4.0,60,0.00,CLR,CLR,0.00,0.0,WeatherDisplay:10.37,2013-08-30 15:40:00,
2013-08-30 10:50:00,91.0,75.2,29.94,SW,223,2.0,6.0,60,0.00,CLR,CLR,0.00,0.0,WeatherDisplay:10.37,2013-08-30 15:50:00,
2013-08-30 11:00:00,92.4,76.0,29.94,SW,234,2.0,3.0,59,0.00,CLR,CLR,0.00,0.0,WeatherDisplay:10.37,2013-08-30 16:00:00,
2013-08-30 11:10:00,92.6,75.6,29.94,WSW,254,1.0,4.0,58,0.00,CLR,CLR,0.00,0.0,WeatherDisplay:10.37,2013-08-30 16:10:00,
2013-08-30 11:20:00,92.4,75.5,29.94,WNW,286,2.0,6.0,58,0.00,CLR,CLR,0.00,0.0,WeatherDisplay:10.37,2013-08-30 16:20:00,
2013-08-30 11:30:00,92.8,75.8,29.93,WSW,244,2.0,5.0,58,0.00,CLR,CLR,0.00,0.0,WeatherDisplay:10.37,2013-08-30 16:30:00,
2013-08-30 11:40:00,93.5,76.0,29.93,SW,230,3.0,5.0,57,0.00,CLR,CLR,0.00,0.0,WeatherDisplay:10.37,2013-08-30 16:40:00,
2013-08-30 11:50:00,93.4,75.9,29.93,SW,220,2.0,6.0,57,0.00,CLR,CLR,0.00,0.0,WeatherDisplay:10.37,2013-08-30 16:50:00,
2013-08-30 12:00:00,93.5,75.4,29.93,SW,223,3.0,5.0,56,0.00,CLR,CLR,0.00,0.0,WeatherDisplay:10.37,2013-08-30 17:00:00,
2013-08-30 12:10:00,93.7,75.1,29.92,SW,234,2.0,8.0,55,0.00,CLR,CLR,0.00,0.0,WeatherDisplay:10.37,2013-08-30 17:10:00,
2013-08-30 12:20:00,94.2,76.1,29.92,WSW,241,2.0,8.0,56,0.00,CLR,CLR,0.00,0.0,WeatherDisplay:10.37,2013-08-30 17:20:00,
2013-08-30 12:30:00,93.7,75.1,29.92,SW,227,3.0,8.0,55,0.00,CLR,CLR,0.00,0.0,WeatherDisplay:10.37,2013-08-30 17:30:00,
2013-08-30 12:40:00,93.7,74.5,29.92,SSW,203,3.0,7.0,54,0.00,CLR,CLR,0.00,0.0,WeatherDisplay:10.37,2013-08-30 17:40:00,
2013-08-30 12:50:00,93.7,75.7,29.92,SW,215,2.0,7.0,56,0.00,CLR,CLR,0.00,0.0,WeatherDisplay:10.37,2013-08-30 17:50:00,
2013-08-30 13:00:00,93.8,75.7,29.92,SW,214,2.0,6.0,56,0.00,CLR,CLR,0.00,0.0,WeatherDisplay:10.37,2013-08-30 18:00:00,
2013-08-30 13:10:00,94.4,74.1,29.91,SW,228,3.0,6.0,52,0.00,CLR,CLR,0.00,0.0,WeatherDisplay:10.37,2013-08-30 18:10:00,
2013-08-30 13:20:00,94.4,75.2,29.91,SW,219,3.0,10.0,54,0.00,CLR,CLR,0.00,0.0,WeatherDisplay:10.37,2013-08-30 18:20:00,
2013-08-30 13:30:00,95.4,75.6,29.91,SW,233,2.0,5.0,53,0.00,CLR,CLR,0.00,0.0,WeatherDisplay:10.37,2013-08-30 18:30:00,
2013-08-30 13:40:00,94.4,75.2,29.91,WSW,247,3.0,6.0,54,0.00,FEW,FEW,0.00,0.0,WeatherDisplay:10.37,2013-08-30 18:40:00,
2013-08-30 13:50:00,94.4,74.1,29.91,WSW,242,1.0,5.0,52,0.00,FEW,FEW,0.00,0.0,WeatherDisplay:10.37,2013-08-30 18:50:00,
2013-08-30 14:00:00,94.3,74.0,29.91,WSW,238,3.0,7.0,52,0.00,CLR,CLR,0.00,0.0,WeatherDisplay:10.37,2013-08-30 19:00:00,
2013-08-30 14:10:00,95.0,74.0,29.90,SW,217,5.0,6.0,51,0.00,CLR,CLR,0.00,0.0,WeatherDisplay:10.37,2013-08-30 19:10:00,
2013-08-30 14:20:00,94.7,75.4,29.90,SSW,212,2.0,7.0,54,0.00,CLR,CLR,0.00,0.0,WeatherDisplay:10.37,2013-08-30 19:20:00,
2013-08-30 14:30:00,94.9,75.0,29.89,WSW,240,1.0,7.0,53,0.00,CLR,CLR,0.00,0.0,WeatherDisplay:10.37,2013-08-30 19:30:00,
2013-08-30 14:40:00,95.1,74.7,29.88,SW,231,2.0,9.0,52,0.00,SCT,SCT,0.00,0.0,WeatherDisplay:10.37,2013-08-30 19:40:00,
2013-08-30 14:50:00,95.9,74.3,29.88,WSW,241,3.0,7.0,50,0.00,SCT,SCT,0.00,0.0,WeatherDisplay:10.37,2013-08-30 19:50:00,
2013-08-30 15:00:00,96.2,75.7,29.88,West,273,2.0,7.0,52,0.00,FEW,FEW,0.00,0.0,WeatherDisplay:10.37,2013-08-30 20:00:00,
2013-08-30 15:10:00,96.0,75.5,29.87,SW,215,3.0,9.0,52,0.00,FEW,FEW,0.00,0.0,WeatherDisplay:10.37,2013-08-30 20:10:00,
2013-08-30 15:20:00,96.2,75.8,29.87,SW,232,3.0,6.0,52,0.00,BKN,BKN,0.00,0.0,WeatherDisplay:10.37,2013-08-30 20:20:00,
2013-08-30 15:30:00,96.3,74.1,29.87,WSW,239,3.0,7.0,49,0.00,BKN,BKN,0.00,0.0,WeatherDisplay:10.37,2013-08-30 20:30:00,
2013-08-30 15:40:00,96.5,75.4,29.87,WSW,250,3.0,5.0,51,0.00,BKN,BKN,0.00,0.0,WeatherDisplay:10.37,2013-08-30 20:40:00,
2013-08-30 15:50:00,97.0,77.6,29.87,SW,232,1.0,8.0,54,0.00,BKN,BKN,0.00,0.0,WeatherDisplay:10.37,2013-08-30 20:50:00,
2013-08-30 16:00:00,96.7,75.0,29.87,WSW,239,2.0,6.0,50,0.00,CLR,CLR,0.00,0.0,WeatherDisplay:10.37,2013-08-30 21:00:00,
2013-08-30 16:10:00,96.2,75.2,29.86,WSW,243,2.0,9.0,51,0.00,CLR,CLR,0.00,0.0,WeatherDisplay:10.37,2013-08-30 21:10:00,
2013-08-30 16:20:00,95.7,75.2,29.86,SW,229,5.0,6.0,52,0.00,CLR,CLR,0.00,0.0,WeatherDisplay:10.37,2013-08-30 21:20:00,
2013-08-30 16:30:00,95.2,75.4,29.85,SW,222,3.0,6.0,53,0.00,CLR,CLR,0.00,0.0,WeatherDisplay:10.37,2013-08-30 21:30:00,
2013-08-30 16:40:00,95.2,75.9,29.85,SSW,208,2.0,6.0,54,0.00,CLR,CLR,0.00,0.0,WeatherDisplay:10.37,2013-08-30 21:40:00,
2013-08-30 16:50:00,94.7,75.4,29.84,SSW,213,3.0,6.0,54,0.00,CLR,CLR,0.00,0.0,WeatherDisplay:10.37,2013-08-30 21:50:00,
2013-08-30 17:00:00,94.5,75.3,29.85,SW,220,1.0,6.0,54,0.00,CLR,CLR,0.00,0.0,WeatherDisplay:10.37,2013-08-30 22:00:00,
2013-08-30 17:10:00,95.2,75.9,29.85,WSW,237,1.0,4.0,54,0.00,CLR,CLR,0.00,0.0,WeatherDisplay:10.37,2013-08-30 22:10:00,
2013-08-30 17:20:00,95.6,75.7,29.85,SW,236,2.0,4.0,53,0.00,FEW,FEW,0.00,0.0,WeatherDisplay:10.37,2013-08-30 22:20:00,
2013-08-30 17:30:00,95.2,75.4,29.85,SW,215,1.0,6.0,53,0.00,FEW,FEW,0.00,0.0,WeatherDisplay:10.37,2013-08-30 22:30:00,
2013-08-30 17:40:00,94.5,75.8,29.85,SW,226,3.0,5.0,55,0.00,FEW,FEW,0.00,0.0,WeatherDisplay:10.37,2013-08-30 22:40:00,
2013-08-30 17:50:00,93.4,76.9,29.85,SW,220,1.0,6.0,59,0.00,FEW,FEW,0.00,0.0,WeatherDisplay:10.37,2013-08-30 22:50:00,
2013-08-30 18:00:00,93.4,76.4,29.84,SSW,209,1.0,3.0,58,0.00,CLR,CLR,0.00,0.0,WeatherDisplay:10.37,2013-08-30 23:00:00,
2013-08-30 18:10:00,93.2,76.2,29.84,SSW,212,1.0,3.0,58,0.00,CLR,CLR,0.00,0.0,WeatherDisplay:10.37,2013-08-30 23:10:00,
2013-08-30 18:20:00,93.1,77.2,29.85,SW,214,1.0,2.0,60,0.00,CLR,CLR,0.00,0.0,WeatherDisplay:10.37,2013-08-30 23:20:00,
2013-08-30 18:30:00,92.5,77.1,29.85,SW,216,1.0,2.0,61,0.00,CLR,CLR,0.00,0.0,WeatherDisplay:10.37,2013-08-30 23:30:00,
2013-08-30 18:40:00,91.9,77.0,29.84,SW,219,1.0,2.0,62,0.00,CLR,CLR,0.00,0.0,WeatherDisplay:10.37,2013-08-30 23:40:00,
2013-08-30 18:50:00,91.1,76.7,29.84,SW,220,0.0,3.0,63,0.00,CLR,CLR,0.00,0.0,WeatherDisplay:10.37,2013-08-30 23:50:00,
2013-08-30 19:00:00,90.1,76.3,29.84,SW,218,0.0,1.0,64,0.00,CLR,CLR,0.00,0.0,WeatherDisplay:10.37,2013-08-31 00:00:00,
2013-08-30 19:10:00,89.1,75.8,29.84,SW,217,0.0,1.0,65,0.00,CLR,CLR,0.00,0.0,WeatherDisplay:10.37,2013-08-31 00:10:00,
2013-08-30 19:20:00,87.8,76.0,29.84,SW,217,0.0,1.0,68,0.00,CLR,CLR,0.00,0.0,WeatherDisplay:10.37,2013-08-31 00:20:00,
2013-08-30 19:30:00,87.0,76.0,29.84,SW,217,0.0,0.0,70,0.00,CLR,CLR,0.00,0.0,WeatherDisplay:10.37,2013-08-31 00:30:00,
2013-08-30 19:40:00,86.2,75.7,29.84,SW,217,0.0,1.0,71,0.00,CLR,CLR,0.00,0.0,WeatherDisplay:10.37,2013-08-31 00:40:00,
2013-08-30 19:50:00,85.5,75.9,29.84,SW,224,0.0,1.0,73,0.00,CLR,CLR,0.00,0.0,WeatherDisplay:10.37,2013-08-31 00:50:00,
2013-08-30 20:00:00,84.7,75.5,29.84,SW,215,0.0,0.0,74,0.00,CLR,CLR,0.00,0.0,WeatherDisplay:10.37,2013-08-31 01:00:00,
2013-08-30 20:10:00,84.4,75.2,29.84,SW,215,0.0,1.0,74,0.00,CLR,CLR,0.00,0.0,WeatherDisplay:10.37,2013-08-31 01:10:00,
2013-08-30 20:20:00,84.0,74.8,29.84,SW,215,0.0,0.0,74,0.00,CLR,CLR,0.00,0.0,WeatherDisplay:10.37,2013-08-31 01:20:00,
2013-08-30 20:30:00,83.7,74.9,29.84,SW,215,0.0,1.0,75,0.00,CLR,CLR,0.00,0.0,WeatherDisplay:10.37,2013-08-31 01:30:00,
2013-08-30 20:40:00,83.6,74.8,29.84,SW,215,0.0,1.0,75,0.00,CLR,CLR,0.00,0.0,WeatherDisplay:10.37,2013-08-31 01:40:00,
2013-08-30 20:50:00,83.3,74.5,29.84,SW,215,0.0,0.0,75,0.00,CLR,CLR,0.00,0.0,WeatherDisplay:10.37,2013-08-31 01:50:00,
2013-08-30 21:00:00,83.2,75.2,29.84,SW,215,0.0,1.0,77,0.00,CLR,CLR,0.00,0.0,WeatherDisplay:10.37,2013-08-31 02:00:00,
2013-08-30 21:10:00,82.8,74.8,29.84,SSW,208,0.0,0.0,77,0.00,CLR,CLR,0.00,0.0,WeatherDisplay:10.37,2013-08-31 02:10:00,
2013-08-30 21:20:00,82.5,74.9,29.85,SSW,203,0.0,0.0,78,0.00,CLR,CLR,0.00,0.0,WeatherDisplay:10.37,2013-08-31 02:20:00,
2013-08-30 21:30:00,82.2,75.0,29.84,SSW,203,0.0,0.0,79,0.00,CLR,CLR,0.00,0.0,WeatherDisplay:10.37,2013-08-31 02:30:00,
2013-08-30 21:40:00,81.9,74.7,29.84,SSW,203,0.0,0.0,79,0.00,CLR,CLR,0.00,0.0,WeatherDisplay:10.37,2013-08-31 02:40:00,
2013-08-30 21:50:00,81.7,74.9,29.85,SSW,203,0.0,0.0,80,0.00,CLR,CLR,0.00,0.0,WeatherDisplay:10.37,2013-08-31 02:50:00,
2013-08-30 22:00:00,81.4,74.6,29.84,SSW,203,0.0,0.0,80,0.00,CLR,CLR,0.00,0.0,WeatherDisplay:10.37,2013-08-31 03:00:00,
2013-08-30 22:10:00,81.2,74.8,29.84,SSW,203,0.0,0.0,81,0.00,CLR,CLR,0.00,0.0,WeatherDisplay:10.37,2013-08-31 03:10:00,
2013-08-30 22:20:00,80.8,74.8,29.84,SSW,203,0.0,0.0,82,0.00,CLR,CLR,0.00,0.0,WeatherDisplay:10.37,2013-08-31 03:20:00,
2013-08-30 22:30:00,80.4,74.8,29.84,SSW,203,0.0,0.0,83,0.00,CLR,CLR,0.00,0.0,WeatherDisplay:10.37,2013-08-31 03:30:00,
2013-08-30 22:40:00,80.3,74.7,29.84,SSW,203,0.0,0.0,83,0.00,CLR,CLR,0.00,0.0,WeatherDisplay:10.37,2013-08-31 03:40:00,
2013-08-30 22:50:00,80.0,74.7,29.84,SSW,203,0.0,0.0,84,0.00,CLR,CLR,0.00,0.0,WeatherDisplay:10.37,2013-08-31 03:50:00,
2013-08-30 23:00:00,79.8,74.5,29.84,SSW,203,0.0,0.0,84,0.00,CLR,CLR,0.00,0.0,WeatherDisplay:10.37,2013-08-31 04:00:00,
2013-08-30 23:10:00,79.8,74.5,29.84,SSW,203,0.0,0.0,84,0.00,CLR,CLR,0.00,0.0,WeatherDisplay:10.37,2013-08-31 04:10:00,
2013-08-30 23:20:00,79.7,74.4,29.83,SSW,203,0.0,0.0,84,0.00,CLR,CLR,0.00,0.0,WeatherDisplay:10.37,2013-08-31 04:20:00,
2013-08-30 23:30:00,79.5,74.6,29.83,SSW,202,0.0,0.0,85,0.00,CLR,CLR,0.00,0.0,WeatherDisplay:10.37,2013-08-31 04:30:00,
2013-08-30 23:40:00,79.5,74.9,29.83,SSW,200,0.0,0.0,86,0.00,CLR,CLR,0.00,0.0,WeatherDisplay:10.37,2013-08-31 04:40:00,
2013-08-30 23:50:00,79.2,74.6,29.83,SSW,200,0.0,0.0,86,0.00,CLR,CLR,0.00,0.0,WeatherDisplay:10.37,2013-08-31 04:50:00,